www.pogodaiklimat.ru

Погода и климат >> Архив погоды >> Перу >> Pucallpa


ПОГОДА в Pucallpa

  • Прогноз погоды в Pucallpa
  • Монитор погоды в Pucallpa
  • Климат города

АРХИВ ПОГОДЫ в Pucallpa

Время (UTC), дата Ветер
(напр.,м/с)
 
Видим.   Явления Облачность Т
(С)
Тd
(С)
f
(%)
Тe
(С)
Тes
(С)
Комфортность P
(гПа)
Po
(гПа)
Тmin
(С)
Tmax
(С)
R
(мм)
R24
(мм)
S
(см)
15 17.11 С 3 10 км 10/8 450 м
[Sc As op]
+27.2 +24.2 84 +38 +39 очень
душно
1010.5 992.9
18 17.11 СВ 5 10 км 10/6 450 м
[Cu med, cong Ac trans]
+29.6 +24.6 75 +42 +44 опасность
перегрева
1008.3 990.9
21 17.11 С 4 10 км 5/5 600 м
[Cu med, cong]
+29.6 +23.3 69 +40 +42 очень
душно
1004.7 987.3
00 18.11 нст 1 10 км 5/5 660 м
[Sc]
+24.8 +22.9 89 +33 +33 очень
душно
1005.4 987.7 +30.4
03 18.11 нст 1 10 км 5/5 450 м
[Sc]
+24.0 +23.2 95 +32 +32 очень
душно
1008.8 991.0
06 18.11 штиль 0 10 км 5/5 500 м
[Sc]
+23.8 +23.2 96 +32 +32 очень
душно
1008.1 990.3
09 18.11 штиль 0 10 км {морось} 5/5 450 м
[Sc]
+24.0 +23.2 95 +32 +32 очень
душно
1006.6 988.8
12 18.11 СВ 2 10 км {морось} 10/5 500 м
[Sc As op]
+24.4 +22.7 90 +32 +32 очень
душно
1008.0 990.2 +24.4 0.0
15 18.11 СЗ 2 10 км 10/8 500 м
[Cu med, cong Ac trans]
+28.8 +24.2 76 +40 +41 очень
душно
1009.0 991.5
18 18.11 С 4 10 км 5/5 600 м
[Cu med, cong]
+31.6 +23.7 63 +43 +50 опасность
перегрева
1006.3 989.0
21 18.11 С 4 10 км 3/3 600 м
[Sc As op]
+31.4 +23.2 62 +42 +45 опасность
перегрева
1002.3 985.0
00 19.11 С 2 10 км 3/3 600 м
[Sc]
+28.4 +23.8 76 +39 +39 очень
душно
1004.8 986.3 +32.0
03 19.11 СВ 3 10 км 9/4 600 м
[Sc As op]
+27.0 +24.8 88 +39 +39 очень
душно
1006.2 988.6
06 19.11 СВ 3 10 км зарница 4/4 450 м
[Sc]
+26.0 +24.4 91 +36 +36 очень
душно
1005.2 987.6
09 19.11 С 3 10 км {гроза} 10/4 450 м
[Sc As op]
+25.8 +24.2 91 +36 +36 очень
душно
1004.7 987.1
12 19.11 ЮВ 2 10 км {гроза} 10/4 450 м
[Sc As op]
+26.4 +23.4 84 +36 +36 очень
душно
1007.6 989.9 +23.8
15 19.11 Ю 2 10 км 10/6 450 м
[Sc As op]
+27.4 +24.4 84 +39 +40 очень
душно
1009.7 992.1
18 19.11 нст 1 10 км 10/6 750 м
[Sc As op]
+29.2 +23.9 73 +40 +42 очень
душно
1007.1 989.7
21 19.11 Ю 5 10 км 6/6 600 м
[Sc]
+30.0 +25.2 76 +44 +45 опасность
перегрева
1003.5 986.0
00 20.11 Ю 2 10 км 4/4 450 м
[Sc]
+26.4 +23.7 85 +36 +36 очень
душно
1004.6 987.0 +31.4
03 20.11 СВ 1 10 км 5/3 450 м
[Sc]
+26.4 +23.8 86 +36 +36 очень
душно
1007.6 989.9
06 20.11 З 1 10 км 9/5 450 м
[Sc As op]
+25.4 +24.4 94 +35 +35 очень
душно
1007.8 990.1
09 20.11 Ю 2 10 км мгла 9/5 450 м
[Sc As op]
+24.6 +24.2 98 +34 +34 очень
душно
1006.5 988.8
12 20.11 Ю 1 10 км 10/5 450 м
[Sc As op]
+25.0 +24.2 95 +34 +35 очень
душно
1008.6 990.9 +24.2
18 20.11 З 2 10 км 10/5 450 м
[Sc As op]
+29.2 +23.5 71 +40 +42 очень
душно
1007.1 990.6
21 20.11 Ю 7 9000 м слабая морось 10/8 450 м
[Sc As op]
+26.6 +25.0 91 +38 +38 очень
душно
1005.5 987.9
00 21.11 ЮВ 2 8000 м гроза, ливневой дождь {морось} 10/3 400 м
[Cb cap As op]
+24.8 +24.3 97 +34 +34 очень
душно
1007.8 990.1 +30.2 17
03 21.11 штиль 0 10 км 10/5 500 м
[Sc Ac trans]
+24.4 +23.3 94 +33 +33 очень
душно
1009.7 991.9
06 21.11 штиль 0 10 км 10/8 400 м
[Sc Ac trans]
+23.8 +23.2 96 +32 +32 очень
душно
1008.9 991.1 1
09 21.11 штиль 0 8000 м 10/8 360 м
[Sc As op]
+23.0 +22.4 96 +31 +31 очень
душно
1008.7 990.9
12 21.11 В 2 6000 м 10/8 240 м
[St As op]
+24.8 +24.3 97 +34 +34 очень
душно
1010.0 992.2 +22.8 18
15 21.11 С 4 10 км 8/8 750 м
[Sc]
+27.8 +23.7 78 +38 +40 очень
душно
1010.4 992.8
18 21.11 СВ 3 10 км 8/8 750 м
[Sc]
+30.8 +24.3 68 +43 +46 опасность
перегрева
1008.5 991.1
21 21.11 С 3 10 км 8/8 600 м
[Cu med, cong]
+30.4 +23.4 66 +41 +42 опасность
перегрева
1005.6 988.2
00 22.11 СЗ 1 10 км 9/4 450 м
[Sc As op]
+27.2 +24.2 84 +38 +38 очень
душно
1006.3 988.7 +31.4
03 22.11 СЗ 1 10 км 9/4 450 м
[Sc As op]
+27.2 +24.2 84 +38 +38 очень
душно
1006.3 988.7 +31.4
06 22.11 штиль 0 10 км 4/4 450 м
[Sc]
+24.8 +24.3 97 +34 +34 очень
душно
1008.3 990.6
09 22.11 ЮВ 1 10 км 8/4 450 м
[Sc As op]
+12.4 +23.8 100 +12 +12 1007.8 990.1
12 22.11 Ю 2 10 км 10/4 600 м
[Sc Ac trans]
+25.6 +24.0 91 +35 +36 очень
душно
1010.0 992.3 +23.8
15 22.11 СВ 3 10 км 5/5 600 м
[Cu med, cong]
+30.4 +24.4 70 +42 +50 опасность
перегрева
1011.2 993.7
18 22.11 СЗ 3 10 км 8/8 600 м
[Cu med, cong]
+32.2 +23.8 61 +44 +47 опасность
перегрева
1008.2 990.9
21 22.11 В 4 10 км 10/4 500 м
[Sc Ac trans]
+26.6 +23.0 81 +36 +37 очень
душно
1006.4 988.8
00 23.11 С 2 10 км гроза без осадков 10/3 500 м
[Cb cap Ac trans]
+25.4 +22.9 86 +34 +34 очень
душно
1007.2 989.5 +32.6
03 23.11 С 2 10 км {гроза} 10/4 500 м
[Sc As op]
+24.4 +23.3 94 +33 +33 очень
душно
1009.4 991.6
06 23.11 штиль 0 10 км {гроза} 10/5 450 м
[Sc As op]
+23.2 +22.9 98 +32 +32 очень
душно
1010.1 992.2
09 23.11 нст 1 10 км 4/4 450 м
[Sc]
+23.0 +22.4 96 +31 +31 очень
душно
1008.8 990.7
12 23.11 нст 1 10 км 6/3 450 м
[Sc As op]
+23.4 +22.6 95 +32 +34 очень
душно
1010.5 992.6 +30.0
15 23.11 С 5 10 км 5/5 600 м
[Cu med, cong]
+28.0 +23.0 74 +37 +42 очень
душно
1011.4 993.8
18 23.11 С 4 10 км 5/5 600 м
[Cu med, cong]
+31.4 +23.8 64 +43 +49 опасность
перегрева
1009.0 991.6
21 23.11 СВ 3 10 км 5/5 600 м
[Cu med, cong]
+31.2 +23.8 65 +43 +45 опасность
перегрева
1005.5 988.1
00 24.11 ЮВ 2 10 км 5/5 600 м
[Sc]
+29.0 +23.6 73 +40 +40 очень
душно
1006.8 989.3 +32.2
03 24.11 В 2 10 км 8/4 600 м
[Cu med, cong As op]
+27.0 +23.7 82 +37 +37 очень
душно
1010.3 992.6
06 24.11 З 1 10 км 6/3 450 м
[Sc As op]
+25.0 +23.9 94 +34 +34 очень
душно
1008.8 991.1

 

Местоположение метеостанции Pucallpa (Перу): широта -8.37 долгота -74.56 высота над уровнем моря 149 м.

В архиве по умолчанию представлена погода в Pucallpa за последнюю неделю. Архивные данные за месяц целиком и за предыдущие месяцы, начиная с января 2011 года, Вы можете получить, выбрав интересующий диапазон дат из раскрывающегося списка и нажав кнопку "Ввод!".

Внимание! Время в таблицах - всемирное. Для получения местного времени необходимо прибавить поправку, которая в Pucallpa равна -5 ч.

Смотрите также архив погоды в соседних городах и на ближайших метеорологических станциях:

Погода в Tingo Maria (Перу) (188 км)
Погода в Porto Walter (Бразилия) (200 км)
Погода в Marechal Thaumaturgo (Бразилия) (205 км)
Погода в Cruzeiro do Sul (Бразилия) (225 км)
Погода в Huanuco (Перу) (246 км)
Погода в Juanjui (Перу) (272 км)
Погода в Tarapoto (Перу) (288 км)
Погода в Yurimaguas (Перу) (326 км)
Погода в Anta (Перу) (351 км)
Погода в Tarauaca (Бразилия) (419 км)

Пояснения к столбцам:

Ветер - указаны скорость ветра в м/с - средняя за 10 мин, порывы в срок и между сроками (в фигурных скобках) и направление, откуда дует ветер: С - северный, СВ - северо-восточный, В - восточный, ЮВ - юго-восточный, Ю - южный, ЮЗ - юго-западный, З - западный, СЗ - северо-западный.
Видимость - горизонтальная дальность видимости в метрах или километрах. При видимости от 1 до 10 км при отсутствии осадков обычно наблюдается дымка, при ухудшении видимости до 1 км и менее - туман. В сухую погоду видимость может ухудшаться дымом, пылью или мглою.
Явления - указаны атмосферные явления, наблюдавшиеся в срок или в последний час перед сроком; фигурными скобками обозначены явления, наблюдавшиеся между сроками (за 1-3 часа до срока); квадратными скобками обозначены град или гололедные отложения с указанием их диаметра в мм.
Облачность - указаны через наклонную черту общая и нижняя облачность в баллах и высота нижней границы облаков в метрах; квадратными скобками обозначены формы облаков: Ci - перистые, Cs - перисто-слоистые, Cc - перисто-кучевые, Ac - высококучевые, As - высокослоистые, Sc - слоисто-кучевые, Ns - слоисто-дождевые, Cu - кучевые, Cb - кучево-дождевые. Подробнее классификацию облаков см. в Атласе облаков (PDF).
T - Температура воздуха - температура, измеренная на высоте 2 м над землей.
Td - Температура точки росы - температура, при понижении до которой содержащийся в воздухе водяной пар достигнет насыщения.
f - Относительная влажность воздуха - влажноcть воздуха, измеренная на высоте 2 м над землей.
Te - Эффективная температура - температура, которую ощущает одетый по сезону человек в тени. Характеристика душности погоды. При расчете учитывается влияние влажности воздуха и скорости ветра на теплоощущения человека.
Tes - Эффективная температура на солнце - температура, которую ощущает человек, с поправкой на солнечный нагрев. Характеристика знойности погоды. Зависит от высоты солнца над горизонтом, облачности и скорости ветра. Ночью, в пасмурную погоду, а также при ветре 12 м/с и более поправка равна нулю.
P - Атмосферное давление - приведенное к уровню моря атмосферное давление.
Po - Атмосферное давление - измеренное на уровне метеостанции атмосферное давление.
Tmin - Минимальная температура - минимум температуры воздуха на высоте 2 м над землей.
Tmax - Максимальная температура - максимум температуры воздуха на высоте 2 м над землей.
R - Количество осадков - Количество выпавших осадков за период времени, мм. При наведении курсора мыши на число - период времени, за который выпало указанное количество осадков.
R24 - Количество осадков - Количество выпавших осадков за 24 часа, мм.
S - Снежный покров - Высота снежного покрова, см. При наведении курсора мыши на число - состояние снежного покрова и степень покрытия местности в баллах.